Weather Service Report


842 
ASUS41 KALY 271310
RWRALY

NEW YORK STATE HOURLY WEATHER ROUNDUP
NATIONAL WEATHER SERVICE ALBANY NY
900 AM EDT WED JUL 27 2016

NOTE: "FAIR" INDICATES FEW OR NO CLOUDS BELOW 12,000 FEET WITH NO
SIGNIFICANT WEATHER AND/OR NO OBSTRUCTIONS TO VISIBILITY.

NYZ032-033-038>043-046>054-057>066-NYZ062>081-082-084-271400-
EAST

  
CITY           SKY/WX    TMP DP  RH WIND       PRES   REMARKS
ALBANY         SUNNY     77  59  53 VRB3      29.97S                  
GLENS FALLS    SUNNY     72  62  71 SE5       29.96S                  
POUGHKEEPSIE   SUNNY     76  64  66 CALM      29.97S                  
NEWBURGH       SUNNY     73  66  78 VRB5      30.00S                  
MONTGOMERY     SUNNY     75  66  73 CALM      29.98F                  
WHITE PLAINS   SUNNY     80  62  54 NW3       29.96S                  
ISLIP          MOSUNNY   81  64  56 CALM      29.95R                  
NEW YORK CITY  MOSUNNY   80  60  50 E8        29.95S                  
CENTRAL PARK   SUNNY     80  60  50 VRB3      29.98F                  
$$

NYZ005>009-017-018-044>046-055-056-271400-
CENTRAL

  
CITY           SKY/WX    TMP DP  RH WIND       PRES   REMARKS
FULTON         SUNNY     75  64  68 W6        29.98S                  
SYRACUSE       MOSUNNY   75  63  66 W6        29.98R                  
ROME           SUNNY     70  62  76 CALM      30.00S                  
ELMIRA         SUNNY     69  61  75 SW6       30.02S                  
BINGHAMTON     SUNNY     70  61  73 W6        30.04S                  
MONTICELLO     SUNNY     70  61  73 CALM      30.04S                  
$$

NYZ026>034-041>043-087-271400-
NORTH

  
CITY           SKY/WX    TMP DP  RH WIND       PRES   REMARKS
WATERTOWN      SUNNY     75  67  76 SW8       29.97R                  
FORT DRUM      NOT AVBL                                               
MASSENA        SUNNY     74  63  68 SW7       29.93S                  
SARANAC LAKE   PTSUNNY   70  60  70 SW8       29.99S                  
PLATTSBURGH    SUNNY     74  65  73 SE7       29.93R                  
$$

NYZ001>004-010>016-019>021-085-271400-
WEST

  
CITY           SKY/WX    TMP DP  RH WIND       PRES   REMARKS
NIAGARA FALLS  MOSUNNY   77  68  73 SW9       29.99                   
BUFFALO        MOSUNNY   75  66  73 SW10      30.00S                  
DUNKIRK        SUNNY     75  64  68 SW8       30.01S                  
JAMESTOWN      SUNNY     66  61  82 S3        30.07S                  
WELLSVILLE     SUNNY     70  61  73 CALM      30.09S                  
ROCHESTER      SUNNY     74  65  73 SW8       29.99S                  
PENN YAN       SUNNY     73  62  68 S10       30.02R                  
$$

             KEY
       WCI = WIND CHILL INDEX
       VSB = VISIBILITY
       HX  = HEAT INDEX
$$
  

Return to Home page


Western Regional Climate Center, wrcc@dri.edu